TimeEDT,TemperatureF,Dew PointF,Humidity,Sea Level PressureIn,VisibilityMPH,Wind Direction,Wind SpeedMPH,Gust SpeedMPH,PrecipitationIn,Events,Conditions,WindDirDegrees,DateUTC
12:58 AM,75.4,73.8,95,30.08,10.0,East,5.8,-,N/A,,Clear,100,2013-07-29 04:58:00
1:58 AM,76.5,75.0,95,30.07,10.0,SE,4.6,-,N/A,,Clear,130,2013-07-29 05:58:00
2:58 AM,75.9,74.1,94,30.05,10.0,East,2.3,-,N/A,,Clear,100,2013-07-29 06:58:00
3:58 AM,75.0,73.2,94,30.05,10.0,Calm,Calm,-,N/A,,Clear,0,2013-07-29 07:58:00
4:58 AM,74.5,73.6,97,30.05,10.0,SE,4.6,-,N/A,,Clear,130,2013-07-29 08:58:00
5:58 AM,74.8,73.9,97,30.06,10.0,South,4.6,-,N/A,,Clear,170,2013-07-29 09:58:00
6:58 AM,74.7,74.1,98,30.08,10.0,SSE,2.3,-,N/A,,Clear,150,2013-07-29 10:58:00
7:58 AM,77.7,75.7,94,30.10,10.0,South,2.3,-,N/A,,Partly Cloudy,180,2013-07-29 11:58:00
8:58 AM,81.5,75.2,81,30.12,10.0,WSW,3.5,-,N/A,,Clear,240,2013-07-29 12:58:00
9:58 AM,83.5,74.5,74,30.14,10.0,South,4.6,-,N/A,,Clear,190,2013-07-29 13:58:00
10:58 AM,85.5,75.6,72,30.14,10.0,WSW,4.6,-,N/A,,Partly Cloudy,240,2013-07-29 14:58:00
11:58 AM,85.1,73.9,69,30.14,10.0,NW,3.5,-,N/A,,Partly Cloudy,310,2013-07-29 15:58:00
12:58 PM,88.0,75.9,67,30.14,10.0,SE,6.9,-,N/A,,Partly Cloudy,140,2013-07-29 16:58:00
1:07 PM,87.8,75.2,66,30.13,10.0,SE,8.1,-,N/A,Rain,Light Rain,130,2013-07-29 17:07:00
1:18 PM,87.8,75.2,66,30.13,10.0,SE,10.4,-,N/A,,Clear,140,2013-07-29 17:18:00
1:58 PM,88.2,75.0,65,30.13,10.0,SSE,10.4,-,0.00,,Clear,160,2013-07-29 17:58:00
2:58 PM,89.4,75.6,63,30.12,10.0,SE,11.5,-,N/A,,Clear,140,2013-07-29 18:58:00
3:58 PM,84.0,76.6,78,30.12,10.0,ESE,9.2,-,N/A,,Clear,110,2013-07-29 19:58:00
4:58 PM,83.7,77.2,81,30.12,10.0,ESE,8.1,-,N/A,,Clear,120,2013-07-29 20:58:00
5:58 PM,86.4,77.2,74,30.11,10.0,SSE,12.7,-,N/A,,Clear,150,2013-07-29 21:58:00
6:58 PM,84.9,78.1,80,30.11,10.0,SSE,10.4,-,N/A,,Clear,160,2013-07-29 22:58:00
7:58 PM,82.6,77.4,84,30.13,10.0,SSE,8.1,-,N/A,,Clear,160,2013-07-29 23:58:00
8:58 PM,80.4,77.5,91,30.14,10.0,SSE,3.5,-,N/A,,Clear,160,2013-07-30 00:58:00
9:58 PM,78.4,76.6,94,30.16,10.0,SE,3.5,-,N/A,,Clear,140,2013-07-30 01:58:00
10:58 PM,77.2,75.9,96,30.17,10.0,SSE,2.3,-,N/A,,Clear,150,2013-07-30 02:58:00
11:58 PM,75.7,75.0,98,30.18,10.0,East,2.3,-,N/A,,Clear,90,2013-07-30 03:58:00